Theta_e
306 306 306 306 307 307 307 307 307 307 307 310 312 311 311 312 311 313 314 313 313 308 310 311 311 310 309 314 315 316 316 316 316 316 317 318 318 320 321 322 324 327 331 344 353
310 311 312 312 312 311 311 311 311 311 309 309 311 311 311 310 312 314 314 311 310 306 314 312 311 309 310 312 314 315 316 316 317 317 316 317 317 318 319 321 322 325 336 344 352
312 313 314 314 313 313 313 312 313 313 313 312 312 310 311 310 315 316 312 315 310 306 310 311 311 310 311 312 315 315 315 316 315 315 315 315 315 316 317 318 321 324 328 339 343
312 313 313 313 313 313 313 312 312 312 311 311 310 310 310 313 322 322 313 314 307 313 310 310 312 311 312 312 313 313 314 314 314 314 314 315 315 315 316 317 319 321 323 323 325
312 312 313 313 312 312 312 311 311 311 310 310 310 309 312 316 317 319 314 310 314 312 310 312 313 313 313 313 313 313 313 313 314 314 314 314 314 314 314 315 317 318 319 320 321
313 313 312 313 312 312 311 310 310 310 309 309 309 309 313 317 314 312 314 316 315 314 311 313 314 314 313 313 313 314 313 313 313 314 315 314 314 314 314 315 315 316 317 319 321
312 312 312 312 311 311 310 310 309 309 309 310 310 311 312 317 313 316 315 316 316 314 314 312 312 312 312 312 312 312 314 316 317 316 316 316 315 315 316 315 315 316 317 318 319
312 312 312 312 311 311 310 309 309 309 311 311 310 312 316 314 314 314 318 319 318 317 313 312 310 312 311 313 315 316 317 317 317 317 318 316 317 318 318 317 315 316 317 318 319
312 312 311 311 311 311 310 309 309 310 312 310 312 313 317 313 313 313 314 318 318 314 312 311 311 311 310 313 316 318 317 317 317 318 318 317 319 320 319 318 317 317 318 318 320
312 311 311 311 310 310 309 309 310 311 311 311 312 313 315 316 315 315 314 318 316 314 313 312 312 312 311 312 315 317 317 317 318 319 318 319 319 320 320 320 320 320 320 319 320
311 310 310 310 310 309 309 311 317 318 313 319 318 317 316 316 316 314 313 318 316 315 314 313 312 311 311 313 315 318 318 318 319 319 319 320 321 321 321 321 321 321 321 320 321
310 309 309 310 309 309 309 314 315 315 320 319 318 317 316 316 319 316 313 318 318 317 314 313 312 311 312 313 315 317 319 319 319 319 319 320 320 321 321 321 322 322 322 322 322
308 308 308 308 308 310 311 312 311 314 320 320 318 319 318 317 319 316 315 319 318 318 317 315 316 314 314 317 318 318 318 319 319 319 319 320 321 321 321 321 321 322 322 323 323
306 305 305 306 310 311 311 312 312 313 325 323 321 320 318 318 320 318 314 318 318 318 317 317 317 317 317 318 318 319 318 318 319 319 320 320 320 321 320 320 321 321 323 324 324
306 305 305 306 307 310 310 313 314 315 329 324 323 319 319 319 321 319 314 316 317 317 317 316 317 318 318 317 318 319 319 319 320 321 321 320 320 320 320 320 321 321 322 326 327
305 304 304 307 309 309 310 311 315 325 328 327 324 323 322 320 320 320 316 315 316 318 318 317 317 317 316 316 319 319 319 319 320 320 321 320 320 320 320 320 321 323 326 327 327
304 302 304 306 310 311 311 314 325 325 321 327 327 326 323 322 320 319 318 317 317 318 320 318 318 318 319 319 320 319 321 322 321 320 319 320 320 320 321 321 324 326 327 328 329
301 302 308 309 309 312 312 322 325 320 323 326 326 326 326 321 321 320 321 320 318 319 320 319 320 319 318 319 319 320 321 321 321 321 320 320 319 319 322 327 325 326 327 328 329
303 307 310 311 310 311 320 325 322 322 323 323 325 321 324 324 321 321 321 321 320 321 322 322 320 319 319 319 319 320 321 321 322 321 321 320 321 321 325 326 326 326 327 329 330
306 308 312 313 311 312 322 323 322 321 324 323 326 323 323 327 326 323 321 322 320 321 321 322 325 321 323 322 321 320 322 323 322 323 323 321 321 321 325 324 326 326 327 327 327
307 312 314 312 312 317 323 321 321 320 323 322 325 325 323 324 327 326 325 327 326 324 322 322 323 324 322 323 323 323 323 324 326 325 326 325 323 326 325 325 326 326 326 325 325
307 312 313 312 321 322 323 321 319 320 323 323 323 323 324 319 322 323 328 324 320 325 325 325 325 329 324 324 323 325 325 326 331 328 327 326 327 328 328 326 326 325 325 325 324
308 310 312 312 325 325 322 321 321 321 322 322 322 321 320 322 322 325 324 320 321 324 326 326 329 332 331 328 325 325 325 326 327 329 330 332 329 327 328 327 326 326 326 325 325
308 313 318 317 318 321 322 322 320 318 321 320 321 318 319 319 318 323 321 318 321 322 319 323 328 328 332 328 327 328 326 325 327 334 330 328 326 327 325 324 324 325 325 326 324
308 313 313 318 318 317 319 321 320 319 319 319 320 319 319 319 317 317 319 318 319 319 320 324 326 325 324 322 322 322 323 323 324 325 326 323 320 319 318 318 317 317 318 319 320
310 311 311 312 315 317 317 319 319 319 318 319 320 318 316 317 315 314 316 319 319 320 322 321 325 322 322 318 318 319 319 319 319 318 318 318 317 316 316 318 319 319 319 319 319
307 308 310 310 311 316 318 319 318 318 317 316 318 317 316 315 314 315 315 315 316 317 318 319 318 319 315 315 315 315 314 314 315 315 314 315 318 320 319 319 317 318 318 319 318
Wind_Speed
15 15 15 15 15 15 15 15 15 15 14 13 12 14 16 15 18 17 16 11 8 11 10 11 15 16 11 9 7 6 8 13 17 15 15 4 12 13 15 11 13 12 7 10 1
15 15 15 16 16 16 15 16 17 18 15 15 14 14 14 15 19 26 24 20 17 17 15 17 15 17 11 13 7 12 11 15 9 9 12 14 13 12 14 14 18 15 7 3 5
16 16 16 16 16 16 16 16 16 16 16 16 16 16 14 14 13 5 5 14 17 23 15 12 15 14 11 10 12 10 15 9 9 13 14 16 17 15 16 20 17 15 9 4 4
15 16 16 17 18 17 18 17 17 17 16 17 16 15 14 7 7 5 8 11 21 19 15 14 14 14 11 12 12 10 12 13 11 10 14 18 17 18 18 22 20 17 9 13 12
17 18 19 19 20 19 19 18 18 18 18 17 16 12 8 9 17 6 1 17 16 18 20 16 14 13 13 11 10 15 13 12 14 16 17 18 20 20 23 21 21 22 19 20 19
18 19 20 20 21 21 21 20 19 21 20 19 15 8 8 16 6 9 10 14 14 19 18 17 9 10 6 10 14 6 10 13 14 16 15 18 19 18 15 10 20 26 27 24 22
19 20 20 20 22 21 22 21 22 23 25 19 13 10 11 22 3 6 13 19 17 19 12 16 8 10 7 7 8 9 12 14 16 18 14 8 16 24 25 23 22 23 21 22 22
20 21 22 22 23 22 22 23 23 25 16 12 11 11 9 8 17 17 10 13 14 15 10 12 10 11 9 1 8 13 10 11 6 7 13 7 13 15 13 18 22 25 21 21 23
21 21 23 24 25 25 25 26 28 12 8 4 9 8 9 4 14 21 20 13 16 14 9 15 11 8 7 12 11 10 10 8 5 3 3 11 13 10 5 10 15 19 19 18 20
23 24 25 25 26 26 28 30 11 4 5 9 1 5 9 5 9 14 25 17 15 15 12 11 9 10 10 11 13 13 12 9 8 7 5 8 17 17 13 11 14 16 16 16 18
23 24 25 26 26 26 29 10 5 6 11 11 10 7 3 2 7 14 29 24 15 18 13 16 12 16 19 17 15 4 8 10 11 8 10 14 12 14 13 9 13 14 14 14 16
24 25 25 27 28 29 10 5 5 7 13 19 23 20 22 8 7 12 32 16 19 17 13 10 16 14 10 13 12 11 11 12 12 6 5 9 14 14 10 8 6 9 10 11 15
27 26 27 28 31 10 8 14 11 5 8 8 11 15 15 15 8 18 27 19 20 19 16 12 2 13 14 13 12 12 13 12 13 11 13 15 16 14 7 6 3 6 5 5 11
28 29 29 29 13 7 20 6 7 7 6 8 7 6 11 10 9 23 31 20 13 18 17 14 10 11 17 14 13 13 12 13 14 13 11 5 11 4 1 6 5 0 4 5 5
30 31 29 22 18 7 5 5 5 6 6 6 7 6 12 12 9 21 32 20 16 14 12 12 12 16 14 16 13 13 8 10 13 13 13 15 9 11 2 11 7 3 3 7 7
33 35 35 20 13 18 9 4 6 7 7 4 5 7 10 15 5 15 18 19 15 12 17 15 12 13 18 15 10 3 7 9 9 11 13 16 15 12 10 6 3 1 5 7 8
37 39 36 23 8 5 10 6 6 8 3 2 3 6 9 13 14 10 16 19 14 16 16 14 13 12 8 11 14 9 9 7 10 10 11 7 8 12 6 3 2 5 6 7 7
40 37 15 14 13 6 14 7 9 5 6 4 4 3 7 11 16 21 24 20 23 19 10 12 13 18 15 18 13 16 14 10 9 10 10 8 7 5 5 3 1 2 4 5 8
35 17 9 4 14 20 7 10 6 3 4 1 5 5 4 5 7 17 17 23 20 18 11 12 12 6 8 17 19 16 9 14 15 9 9 6 10 6 8 7 4 3 4 7 9
22 14 4 3 14 18 7 15 5 7 8 5 5 4 2 6 12 14 16 5 12 16 19 9 4 12 11 7 7 15 6 10 10 17 17 10 8 8 11 8 4 3 4 6 7
12 6 7 7 15 8 10 12 8 12 5 6 5 5 3 6 9 1 8 5 1 9 11 12 10 8 8 11 10 8 11 11 9 6 10 11 2 11 7 2 3 3 5 5 7
8 4 7 13 6 8 12 7 2 10 4 3 9 3 6 6 3 7 4 5 3 5 11 5 5 7 11 4 3 5 9 7 8 13 8 9 7 5 4 2 2 4 4 5 4
8 4 5 3 5 9 11 9 9 6 5 5 6 8 4 8 5 10 6 1 3 3 5 6 6 8 6 12 9 10 11 9 6 4 12 10 4 5 6 3 2 3 4 0 2
4 4 2 5 4 10 11 12 7 3 3 2 4 7 7 7 5 6 7 3 2 5 5 2 6 6 1 3 2 11 10 13 12 9 12 13 12 11 6 3 4 4 7 8 5
2 2 2 4 3 10 9 11 8 4 1 4 5 12 6 4 4 5 4 8 4 3 2 1 5 5 1 1 2 2 6 9 10 11 11 11 12 10 10 13 14 15 14 14 14
4 5 6 11 8 9 7 9 9 5 3 7 7 7 4 2 2 0 2 3 1 3 2 1 4 6 11 4 8 13 14 15 16 15 16 15 16 14 9 10 11 10 12 12 12
2 4 4 8 6 8 3 9 7 4 1 6 5 7 6 6 4 4 4 3 3 1 3 3 4 5 9 2 6 10 16 18 16 14 11 12 4 8 6 6 5 4 6 6 7
Wind_Direction
350 347 344 342 341 337 333 330 327 325 323 322 319 320 322 313 304 287 254 241 208 193 154 150 171 191 203 210 221 243 243 243 241 242 254 217 252 253 266 265 248 258 295 345 286
352 351 348 344 340 336 332 328 326 325 321 320 319 319 317 311 297 270 254 241 231 180 171 167 167 175 191 205 201 215 231 246 260 275 259 269 257 265 269 253 241 237 167 85 126
349 347 343 339 334 331 328 323 323 323 320 318 316 317 316 326 286 247 252 234 201 184 195 196 171 181 197 195 201 214 248 255 232 247 258 267 265 259 253 254 244 245 198 197 209
345 340 337 335 331 327 324 322 319 317 314 314 313 313 310 311 279 23 355 185 172 174 186 181 180 193 207 207 211 241 228 253 252 256 253 259 266 263 255 257 268 254 290 285 264
340 338 335 333 330 324 321 319 314 311 306 307 306 307 301 244 249 271 326 153 166 178 190 186 190 206 218 209 194 232 249 249 252 257 255 265 266 268 263 263 268 271 274 268 268
336 333 331 328 326 324 320 317 314 308 301 297 291 274 246 256 270 215 196 170 186 189 201 204 209 213 240 217 217 171 239 252 248 251 253 253 264 260 260 251 246 251 250 251 256
331 328 325 323 324 320 319 314 313 309 301 288 257 225 238 240 264 217 205 202 200 201 204 208 217 194 196 199 222 228 248 242 234 240 239 263 254 251 253 248 244 252 254 252 252
330 327 324 322 322 319 316 313 311 315 302 281 221 209 248 256 239 234 192 190 200 202 219 194 201 222 236 75 202 221 229 243 148 217 217 209 284 285 256 227 234 246 251 249 248
328 325 322 321 322 319 317 314 313 307 300 227 171 212 257 204 223 222 203 184 167 175 180 172 184 208 193 223 211 203 239 198 236 69 151 211 286 307 297 248 231 236 246 242 245
328 327 325 322 321 319 317 314 301 266 118 153 223 209 244 225 193 200 194 178 162 154 144 173 192 206 212 204 220 215 214 215 234 142 216 246 266 278 276 243 234 236 244 237 235
330 329 326 322 321 321 322 318 203 181 207 219 207 245 282 304 158 175 175 170 166 180 185 186 197 207 205 211 240 257 250 249 259 261 273 275 274 287 287 256 243 235 243 228 227
328 328 327 324 321 318 299 246 325 325 289 238 245 235 261 290 232 167 171 175 175 191 183 176 223 207 210 206 229 239 251 253 267 270 259 265 292 283 267 266 269 232 223 221 214
328 329 328 326 325 310 254 276 287 298 266 287 224 236 231 201 226 168 184 195 189 199 192 218 204 188 200 197 218 230 248 258 267 268 280 260 268 252 215 233 259 276 261 216 215
332 334 336 332 311 322 294 302 262 232 275 163 201 207 180 202 221 177 197 193 195 201 194 225 199 192 196 212 216 243 230 248 268 266 260 182 273 145 232 278 208 51 22 8 259
326 328 329 320 290 273 319 331 136 202 285 106 138 144 154 197 117 170 186 202 201 203 198 207 213 210 211 210 218 254 254 257 254 253 259 244 244 266 163 240 187 173 6 10 353
322 324 322 312 250 256 259 285 240 236 246 146 129 188 176 206 220 145 184 213 224 210 208 217 209 218 221 215 221 176 240 230 252 251 241 242 243 250 224 222 154 124 7 11 353
320 318 309 271 246 244 203 216 229 244 68 160 146 331 250 188 178 175 178 201 203 207 211 215 215 216 234 199 199 213 234 227 217 219 242 224 228 245 69 117 328 333 348 7 0
321 318 303 247 239 191 169 215 242 273 269 70 46 257 299 197 202 188 192 197 209 205 206 214 210 215 209 225 228 210 226 245 235 238 232 144 228 228 101 119 94 22 6 8 19
326 316 283 240 196 196 211 218 257 280 352 277 98 74 272 187 210 212 198 204 194 204 214 212 215 153 199 217 224 220 226 247 277 269 286 259 168 203 169 165 159 99 66 44 38
323 314 266 214 166 183 225 248 253 260 327 261 272 134 301 261 231 205 203 211 196 205 217 237 199 213 148 190 205 242 247 207 227 254 245 233 226 272 172 178 152 124 77 65 59
309 298 38 155 163 203 232 237 254 269 292 286 238 147 135 348 343 248 198 127 83 169 214 215 245 185 188 208 199 183 224 234 293 271 252 260 281 27 62 114 167 125 100 83 74
321 292 69 147 225 219 241 222 265 270 148 197 336 189 174 135 324 22 323 28 1 242 192 208 205 264 234 40 268 271 278 275 222 246 261 287 271 89 85 85 191 155 138 109 86
324 279 216 194 257 242 258 249 238 271 250 176 160 292 171 171 169 199 190 187 313 272 184 184 205 223 219 211 213 236 214 252 254 253 237 241 249 108 100 126 160 236 144 231 325
296 299 156 211 284 297 293 271 237 222 155 181 145 268 173 181 179 174 159 158 161 106 46 266 214 230 276 352 191 212 224 231 239 249 255 250 251 159 163 228 253 255 266 259 272
266 33 48 315 278 318 296 285 279 205 114 167 170 228 229 218 193 176 164 150 142 121 95 272 252 246 176 297 324 293 222 210 237 253 261 273 286 295 301 297 289 292 285 273 269
317 335 333 286 278 294 276 265 275 217 242 199 237 169 170 228 350 323 207 216 130 151 171 153 227 268 259 258 270 266 256 252 255 260 266 268 274 271 301 316 299 306 299 277 266
315 265 276 292 278 289 319 326 327 287 156 306 214 170 139 98 75 44 59 71 80 228 167 207 226 233 256 91 281 262 246 241 249 250 265 259 327 1 331 358 345 7 17 37 62